Location: Bernadets
(43.3537°N, 0.3167°E)
Time: 08:20:58
(UTC+00:00)

H-2A R/B - Pass Details

Date: 24 October 2021
Orbit: 577 x 654 km, 98.5° (Epoch: 02 December)

Event Time Altitude Azimuth Distance (km) Brightness Sun altitude
Exits shadow 18:50:54 44° 43° (NE) 820 2.3 -20.6°
Maximum altitude 18:52:00 62° 102° (ESE) 667 1.9 -20.7°
Drops below altitude 10° 18:56:09 10° 184° (S) 1,937 4.6 -21.5°
Sets 18:58:21 0° 187° (S) 2,847 5.5 -21.9°
